Regional Weather Roundup
Issued by NWS Goodland, KS

Home | Current Version | Previous Version | Text Only | Print | Product List | Glossary On
Versions: 1 2 3 4 5 6 7 8 9 10 11 12 13 14 15 16 17 18 19 20 21 22 23 24 25 26 27 28 29 30 31 32 33 34 35 36 37 38 39 40 41 42 43 44 45 46 47 48 49 50
000
ASUS43 KGLD 080408
RWRGLD

GOODLAND FORECAST AREA HOURLY WEATHER ROUNDUP
NATIONAL WEATHER SERVICE GOODLAND KS
900 PM MST SUN FEB 07 2016

...OFFICIAL OBSERVATIONS...

CITY           SKY/WX    TMP DP  RH WIND       PRES   REMARKS
GOODLAND KS    CLOUDY    29  16  58 NW17      30.32R WCI  17
HILL CITY KS   CLEAR     33  19  56 NW17G26   30.24R
IMPERIAL NEB   CLEAR     28  14  55 NW21G31   30.28S WCI  15
MCCOOK NEB     CLEAR     30  17  58 NW21      30.25R WCI  17
AKRON CO       CLOUDY    27  15  61 NW23G32   30.35R WCI  12
BURLINGTON CO  CLOUDY    28  16  60 NW18      30.34S WCI  15
LIMON CO       CLOUDY    17  11  77 W6        30.37S
$$

...UNOFFICIAL OBSERVATIONS...

CITY           SKY/WX    TMP DP  RH WIND       PRES   REMARKS
COLBY KS       CLEAR     28  19  69 NW21      30.30R WCI  15
GOVE KS          N/A     32  32 100 MISG        N/A
LENORA KS        N/A     31  32 100 MISG        N/A
NORTON KS      CLEAR     30  18  59 W22       30.22  WCI  17
KIT CARSON CO    N/A     22  15  73 MISG        N/A
YUMA CO          N/A     28  18  66 NW16G26     N/A  WCI  16
$$




USA.gov is the U.S. government's official web portal to all federal, state and local government web resources and services.